CZ-8A R/B, 68138

Orbit data source: Space-Track

CZ-8A R/B, 68138 is space debris in LEO originally from a launch on Thu, 12 Mar 2026 UTC launched from the Wenchang Satellite Launch Center (WSC). Debris objects in space refer to the collection of defunct objects orbiting the Earth. Examples of debris include non-operational satellites, rocket bodies, and fragments generated from explosions, collisions, or faulty payload assembly.

Loading next visibility...
Identifier
68138, 2026-047K
Orbit
LEO
Country
Flag of CNCN / PRC
Related business
Manufacturer
CALT
Mission
Spacecraft
Bus & Motor
CZ-8A STAGE 2, Unknown motor
Mass
~2,800 kg wet, ~2,800 kg dry
Launch date (UTC)
2026-03-12 (1 month ago)
Launch vehicle
Unknown
Launch site
Wenchang Satellite Launch Center (WSC)
Object type
Payload
Rocket body
Debris
Shape & HBR
Unknown
Radar Cross Section
RCS unknown

Expand to show TLE details & history
Last TLE update: 9 hours ago

TLE from 9 hours ago
0 CZ-8A R/B
1 68138U 26047K   26105.19972172 -.00000195  00000-0 -21942-4 0  9996
2 68138  49.9521 279.7078 0044761 263.5762  96.0047 14.12235594  4715
Epoch: 2026-04-15T04:47Z
TLE epoch observation values (Epoch: 2026-04-15T04:47:35.956Z)
Latitude
-0.00004°
Longitude
4.44291°
Altitude
855.782 km
Speed
7.424 km/s
True Right ascension
18h 38m 49s
True Declination
0° 00' 00"
Sunlit
Object was in daylight at epoch
Visualization orbit readout
Latitude
Unknown
Longitude
Unknown
Altitude
Unknown
Speed
Unknown
Apparent Right ascension
Unknown
Apparent Declination
Unknown
Sunlit
N/A
Visualization observer readout
Local Sidereal Time
20:41:15
Azimuth
Unknown
Elevation
Unknown
Doppler factor
Unknown
Orbital elements
Apogee altitude
884.838 km
Perigee altitude
820.108 km
Semi-major axis
7,230.61 km
Eccentricity
0.00448
Inclination
49.9521°
RAAN
279.7078°
Arg. of periapsis
263.5762°
True anomaly
96.5145°
Mean anomaly
96.0047°
Eccentric anomaly
96.25963°
Mean motion
3.53005 °/min
Orbital period
101.98 mins
BSTAR
-0.000021942
Loading maneuver chart data...
Computing Atmospheric mass density...
Loading historical data...
Loading historical data...
Loading historical data...
Loading historical data...
Loading historical data...
Loading historical data...
Loading historical data...

Documentation

Showing up to 5 results
|